Regional Weather Roundup
Issued by NWS

Current Version | Previous Version | Text Only | Print | Product List | Glossary On
Versions: 1 2 3 4 5 6 7 8 9 10 11 12 13 14 15 16 17 18 19 20 21 22 23 24 25 26 27 28 29 30 31 32 33 34 35 36 37 38 39 40 41 42 43 44 45 46 47 48 49 50
000
ASUS44 KOUN 270610
RWROK

WEATHER ROUNDUP FOR OKLAHOMA
NATIONAL WEATHER SERVICE NORMAN OK
1200 AM CST MON FEB 27 2017

NOTE: "FAIR" INDICATES FEW OR NO CLOUDS BELOW 12,000 FEET WITH NO
      SIGNIFICANT WEATHER AND/OR OBSTRUCTIONS TO VISIBILITY.

OKZ001>007-009>012-014-015-017-270700-
NORTHWEST OKLAHOMA AND THE PANHANDLE

CITY           SKY/WX    TMP DP  RH WIND       PRES   REMARKS
GAGE           CLEAR     38  29  70 E9        29.89F WCI  31
6HR MIN TEMP:  36; 6HR MAX TEMP:  54;

GUYMON         CLEAR     36  22  56 SE9       29.85F WCI  29
ENID/WOODRING  CLEAR     43  32  65 E14       29.94F
$$

OKZ016-021>023-033>039-044-045-270700-
SOUTHWEST OKLAHOMA

CITY           SKY/WX    TMP DP  RH WIND       PRES   REMARKS
LAWTON/FT SILL PTCLDY    42  36  79 NE8       29.91S
FREDERICK      CLEAR     45  36  70 NE13      29.88S
CLINTON        CLEAR     40  32  73 E9        29.91F WCI  34
HOBART         CLEAR     40  35  83 E12       29.92F WCI  33
ALTUS AFB      PTCLDY    39  34  80 NE9       29.90S WCI  33
$$

OKZ018>020-024>031-270700-
CENTRAL OKLAHOMA

CITY           SKY/WX    TMP DP  RH WIND       PRES   REMARKS
OKLAHOMA CITY  MOCLDY    44  33  65 NE9       29.93F
6HR MIN TEMP:  44; 6HR MAX TEMP:  55;

OKC/WILEY POST CLEAR     44  34  67 E9        29.94F
OKC/TINKER AFB PTCLDY    42  33  69 NE6       29.92F
STILLWATER     CLEAR     38  29  70 E7        29.96F WCI  33
GUTHRIE        CLEAR     43  32  65 E9        29.94F
$$

OKZ008-013-054>072-270700-
NORTHEAST OKLAHOMA

CITY           SKY/WX    TMP DP  RH WIND       PRES   REMARKS
TULSA          CLEAR     43  35  73 CALM      29.97F
6HR MIN TEMP:  39; 6HR MAX TEMP:  56;

TULSA/JONES    CLEAR     40  35  83 N5        29.98F
PONCA CITY     CLEAR     39  30  70 E6        29.97F WCI  35
BARTLESVILLE   CLEAR     36  30  79 CALM      30.01F
MUSKOGEE       PTCLDY    46  35  65 CALM      30.00S
$$

OKZ032-040>043-046>053-073>077-270700-
SOUTH CENTRAL/SOUTHEAST OKLAHOMA

CITY           SKY/WX    TMP DP  RH WIND       PRES   REMARKS
ARDMORE/DWNTWN CLOUDY    50  46  87 CALM      29.93R
MCALESTER      PTCLDY    49  35  58 NE5       29.96F
$$





USA.gov is the U.S. government's official web portal to all federal, state and local government web resources and services.